Location: Marcé
(47.5801°N, 0.3280°W)
Time: 20:08:04
(UTC+01:00)

Tiros 1 despin weight - Pass Details

Date: 16 December 2021
Orbit: 592 x 641 km, 48.2° (Epoch: 16 January)

Event Time Altitude Azimuth Distance (km) Brightness Sun altitude
Rises 11:07:12 0° 257° (WSW) 2,875 ? 14.9°
Reaches altitude 10° 11:09:31 10° 257° (WSW) 1,963 ? 15.1°
Maximum altitude 11:14:02 87° 171° (S) 610 ? 15.4°
Drops below altitude 10° 11:18:29 10° 80° (E) 1,938 ? 15.7°
Sets 11:20:46 0° 80° (E) 2,836 ? 15.9°
